Precipitable_Water
0.68 0.68 0.71 0.73 0.73 0.70 0.69 0.66 0.64 0.62 0.59 0.55 0.53 0.49 0.45 0.41 0.35 0.32 0.32 0.35 0.35 0.35 0.37 0.37 0.37 0.37 0.35 0.35 0.35 0.34 0.31 0.23 0.21 0.19 0.18 0.21 0.24 0.24 0.23 0.23 0.23 0.26 0.24 0.20 0.19 0.21 0.21 0.24 0.24 0.27 0.26 0.29 0.30 0.30 0.34 0.34 0.36 0.34 0.26 0.24 0.20 0.21 0.20 0.24 0.23 0.25 0.26 0.24 0.26 0.27 0.30 0.29 0.25 0.29 0.32 0.33 0.29 0.30 0.29 0.28 0.31 0.33 0.31 0.32 0.32 0.33 0.35 0.38
0.64 0.62 0.62 0.65 0.66 0.64 0.63 0.60 0.58 0.57 0.53 0.51 0.45 0.41 0.37 0.35 0.33 0.31 0.30 0.32 0.35 0.36 0.36 0.37 0.36 0.35 0.35 0.35 0.36 0.36 0.29 0.23 0.23 0.21 0.20 0.25 0.26 0.26 0.25 0.24 0.25 0.24 0.22 0.16 0.18 0.20 0.20 0.21 0.24 0.25 0.25 0.25 0.28 0.28 0.33 0.30 0.35 0.28 0.25 0.23 0.17 0.22 0.23 0.28 0.26 0.26 0.25 0.23 0.23 0.24 0.28 0.28 0.24 0.26 0.30 0.24 0.23 0.24 0.23 0.24 0.27 0.27 0.29 0.32 0.33 0.34 0.35 0.38
0.55 0.52 0.51 0.53 0.56 0.56 0.54 0.52 0.50 0.49 0.46 0.42 0.38 0.35 0.34 0.33 0.33 0.31 0.30 0.30 0.33 0.34 0.34 0.34 0.34 0.34 0.32 0.33 0.34 0.34 0.28 0.26 0.22 0.22 0.26 0.28 0.26 0.25 0.24 0.24 0.25 0.24 0.19 0.16 0.20 0.21 0.20 0.20 0.22 0.22 0.23 0.22 0.23 0.22 0.26 0.25 0.28 0.30 0.26 0.19 0.18 0.23 0.24 0.24 0.24 0.23 0.24 0.23 0.22 0.22 0.26 0.26 0.26 0.26 0.28 0.21 0.20 0.22 0.18 0.16 0.20 0.22 0.21 0.25 0.30 0.32 0.34 0.36
0.44 0.43 0.42 0.44 0.48 0.49 0.48 0.46 0.44 0.42 0.40 0.37 0.36 0.34 0.32 0.32 0.31 0.30 0.30 0.31 0.32 0.33 0.33 0.33 0.33 0.32 0.31 0.30 0.32 0.31 0.25 0.19 0.17 0.24 0.27 0.27 0.24 0.23 0.23 0.24 0.26 0.26 0.23 0.22 0.22 0.23 0.24 0.22 0.20 0.20 0.19 0.18 0.20 0.21 0.18 0.22 0.19 0.24 0.24 0.18 0.19 0.24 0.20 0.19 0.19 0.19 0.21 0.22 0.21 0.22 0.23 0.23 0.25 0.25 0.23 0.20 0.17 0.16 0.15 0.17 0.17 0.17 0.19 0.23 0.28 0.30 0.32 0.34
0.43 0.42 0.41 0.44 0.47 0.47 0.44 0.41 0.40 0.39 0.37 0.36 0.36 0.36 0.34 0.32 0.29 0.30 0.31 0.33 0.33 0.35 0.34 0.34 0.33 0.32 0.31 0.30 0.29 0.28 0.18 0.14 0.20 0.26 0.30 0.29 0.26 0.24 0.25 0.26 0.29 0.26 0.23 0.22 0.21 0.22 0.21 0.19 0.18 0.18 0.16 0.15 0.17 0.17 0.17 0.20 0.22 0.20 0.17 0.20 0.21 0.20 0.17 0.19 0.19 0.19 0.18 0.19 0.19 0.20 0.19 0.18 0.23 0.23 0.20 0.18 0.13 0.11 0.13 0.15 0.19 0.20 0.21 0.23 0.25 0.28 0.31 0.31
0.48 0.48 0.48 0.49 0.47 0.43 0.40 0.38 0.38 0.37 0.37 0.37 0.38 0.36 0.35 0.32 0.30 0.31 0.33 0.33 0.34 0.35 0.35 0.36 0.35 0.32 0.33 0.31 0.29 0.24 0.15 0.11 0.25 0.27 0.34 0.33 0.30 0.28 0.26 0.27 0.31 0.28 0.25 0.19 0.17 0.17 0.17 0.17 0.17 0.15 0.14 0.14 0.14 0.14 0.17 0.19 0.21 0.14 0.16 0.17 0.18 0.18 0.16 0.18 0.18 0.18 0.18 0.17 0.16 0.16 0.17 0.19 0.17 0.16 0.18 0.17 0.14 0.14 0.17 0.18 0.19 0.20 0.22 0.24 0.27 0.28 0.28 0.29
0.52 0.52 0.51 0.48 0.44 0.40 0.38 0.38 0.37 0.36 0.37 0.37 0.36 0.35 0.35 0.34 0.32 0.32 0.32 0.33 0.33 0.35 0.35 0.35 0.34 0.34 0.32 0.32 0.31 0.23 0.16 0.14 0.23 0.29 0.31 0.31 0.30 0.28 0.28 0.30 0.31 0.26 0.24 0.19 0.17 0.16 0.16 0.16 0.16 0.15 0.14 0.14 0.15 0.15 0.17 0.18 0.20 0.17 0.13 0.16 0.16 0.18 0.16 0.17 0.17 0.17 0.17 0.16 0.15 0.16 0.18 0.15 0.15 0.12 0.16 0.15 0.16 0.17 0.20 0.22 0.22 0.23 0.24 0.26 0.25 0.27 0.26 0.27
0.52 0.51 0.48 0.44 0.41 0.40 0.38 0.38 0.37 0.38 0.37 0.36 0.35 0.35 0.34 0.34 0.33 0.32 0.33 0.33 0.35 0.35 0.35 0.34 0.32 0.32 0.31 0.25 0.20 0.17 0.16 0.16 0.25 0.28 0.27 0.27 0.26 0.25 0.26 0.25 0.25 0.25 0.22 0.19 0.18 0.17 0.17 0.16 0.15 0.17 0.15 0.14 0.15 0.16 0.19 0.17 0.18 0.16 0.15 0.17 0.17 0.17 0.17 0.17 0.17 0.17 0.16 0.16 0.16 0.16 0.15 0.15 0.16 0.15 0.15 0.14 0.16 0.18 0.20 0.22 0.24 0.24 0.25 0.26 0.26 0.27 0.28 0.28
0.49 0.46 0.43 0.41 0.40 0.39 0.38 0.38 0.40 0.40 0.38 0.36 0.35 0.34 0.34 0.34 0.33 0.32 0.32 0.33 0.34 0.35 0.33 0.31 0.30 0.29 0.32 0.23 0.19 0.14 0.13 0.22 0.24 0.25 0.26 0.24 0.23 0.23 0.23 0.21 0.24 0.21 0.21 0.21 0.20 0.18 0.17 0.16 0.17 0.17 0.14 0.14 0.18 0.16 0.18 0.17 0.14 0.17 0.17 0.18 0.18 0.17 0.18 0.18 0.17 0.17 0.16 0.16 0.16 0.15 0.15 0.16 0.16 0.17 0.14 0.14 0.16 0.18 0.19 0.21 0.23 0.24 0.24 0.24 0.25 0.26 0.26 0.27
0.44 0.43 0.42 0.41 0.40 0.40 0.40 0.41 0.40 0.39 0.37 0.35 0.34 0.35 0.36 0.35 0.34 0.33 0.33 0.33 0.34 0.34 0.31 0.29 0.27 0.26 0.22 0.18 0.16 0.10 0.17 0.22 0.25 0.26 0.26 0.24 0.22 0.21 0.21 0.21 0.22 0.21 0.19 0.19 0.19 0.17 0.15 0.16 0.16 0.19 0.18 0.16 0.18 0.15 0.19 0.17 0.15 0.20 0.19 0.19 0.18 0.19 0.19 0.19 0.17 0.17 0.17 0.16 0.17 0.15 0.14 0.14 0.16 0.15 0.11 0.16 0.18 0.19 0.20 0.21 0.23 0.22 0.22 0.24 0.24 0.26 0.28 0.28
0.41 0.42 0.41 0.41 0.40 0.40 0.41 0.40 0.40 0.38 0.36 0.36 0.35 0.35 0.36 0.37 0.37 0.36 0.34 0.34 0.35 0.34 0.32 0.30 0.28 0.24 0.19 0.18 0.13 0.10 0.21 0.23 0.26 0.25 0.24 0.23 0.21 0.18 0.18 0.20 0.22 0.20 0.19 0.19 0.20 0.20 0.19 0.18 0.19 0.20 0.17 0.14 0.18 0.17 0.17 0.18 0.22 0.20 0.19 0.19 0.19 0.19 0.19 0.18 0.17 0.17 0.17 0.16 0.17 0.16 0.14 0.15 0.16 0.16 0.14 0.17 0.19 0.21 0.20 0.21 0.22 0.23 0.23 0.24 0.25 0.27 0.30 0.31
0.38 0.39 0.38 0.38 0.39 0.40 0.40 0.40 0.39 0.37 0.38 0.37 0.38 0.37 0.36 0.37 0.37 0.38 0.37 0.36 0.35 0.35 0.33 0.30 0.28 0.24 0.23 0.20 0.16 0.16 0.26 0.27 0.29 0.29 0.26 0.24 0.21 0.20 0.21 0.21 0.21 0.21 0.20 0.18 0.19 0.23 0.23 0.21 0.20 0.17 0.12 0.22 0.15 0.19 0.18 0.22 0.20 0.19 0.19 0.15 0.16 0.17 0.16 0.17 0.16 0.17 0.17 0.16 0.18 0.17 0.15 0.13 0.15 0.14 0.19 0.20 0.21 0.22 0.22 0.22 0.22 0.22 0.23 0.25 0.26 0.27 0.28 0.30
0.38 0.37 0.36 0.36 0.36 0.37 0.37 0.37 0.37 0.37 0.37 0.38 0.37 0.37 0.37 0.36 0.37 0.39 0.40 0.39 0.39 0.37 0.35 0.33 0.30 0.27 0.23 0.16 0.20 0.27 0.29 0.30 0.30 0.29 0.28 0.28 0.26 0.24 0.24 0.24 0.23 0.23 0.23 0.20 0.19 0.22 0.24 0.23 0.22 0.17 0.18 0.19 0.17 0.14 0.21 0.23 0.20 0.21 0.19 0.17 0.14 0.14 0.13 0.16 0.17 0.17 0.17 0.16 0.18 0.18 0.11 0.14 0.17 0.20 0.22 0.24 0.23 0.23 0.23 0.23 0.23 0.23 0.23 0.24 0.26 0.28 0.29 0.30
0.35 0.35 0.35 0.33 0.33 0.32 0.32 0.32 0.34 0.35 0.37 0.37 0.36 0.36 0.36 0.36 0.37 0.40 0.40 0.40 0.42 0.40 0.38 0.38 0.32 0.27 0.24 0.19 0.26 0.28 0.29 0.32 0.31 0.28 0.26 0.28 0.25 0.24 0.27 0.27 0.26 0.25 0.26 0.24 0.24 0.25 0.25 0.27 0.24 0.21 0.27 0.19 0.15 0.26 0.19 0.18 0.19 0.13 0.15 0.15 0.12 0.11 0.10 0.17 0.19 0.20 0.19 0.22 0.22 0.22 0.14 0.15 0.19 0.21 0.23 0.24 0.24 0.23 0.22 0.22 0.23 0.23 0.23 0.24 0.26 0.27 0.28 0.30
0.36 0.35 0.34 0.33 0.32 0.31 0.31 0.31 0.31 0.31 0.31 0.32 0.33 0.35 0.36 0.36 0.41 0.43 0.43 0.42 0.42 0.40 0.40 0.41 0.35 0.27 0.23 0.24 0.32 0.33 0.33 0.32 0.28 0.27 0.27 0.24 0.23 0.21 0.23 0.26 0.25 0.26 0.26 0.26 0.24 0.26 0.28 0.28 0.25 0.20 0.17 0.24 0.22 0.17 0.14 0.14 0.15 0.16 0.11 0.10 0.13 0.12 0.13 0.17 0.21 0.21 0.18 0.21 0.24 0.21 0.15 0.15 0.17 0.19 0.23 0.24 0.23 0.23 0.22 0.22 0.23 0.24 0.24 0.24 0.25 0.27 0.29 0.30
0.41 0.39 0.38 0.37 0.35 0.33 0.32 0.32 0.32 0.31 0.31 0.30 0.30 0.32 0.37 0.42 0.47 0.44 0.45 0.44 0.42 0.39 0.38 0.30 0.32 0.31 0.28 0.24 0.27 0.32 0.30 0.27 0.28 0.30 0.28 0.25 0.24 0.21 0.23 0.22 0.22 0.23 0.25 0.24 0.27 0.27 0.27 0.27 0.21 0.20 0.19 0.19 0.16 0.14 0.13 0.12 0.12 0.16 0.12 0.10 0.10 0.13 0.13 0.15 0.18 0.21 0.21 0.20 0.21 0.18 0.14 0.16 0.17 0.20 0.22 0.23 0.22 0.22 0.22 0.22 0.23 0.23 0.24 0.24 0.25 0.27 0.28 0.30
0.43 0.41 0.40 0.38 0.38 0.36 0.36 0.35 0.35 0.34 0.33 0.32 0.32 0.35 0.39 0.45 0.46 0.41 0.40 0.40 0.36 0.38 0.30 0.22 0.32 0.32 0.18 0.26 0.28 0.23 0.24 0.26 0.28 0.26 0.25 0.26 0.25 0.24 0.23 0.20 0.18 0.19 0.22 0.23 0.24 0.24 0.24 0.23 0.25 0.22 0.23 0.17 0.18 0.16 0.12 0.11 0.10 0.12 0.15 0.12 0.15 0.13 0.15 0.14 0.19 0.21 0.20 0.19 0.16 0.18 0.15 0.15 0.18 0.20 0.21 0.22 0.23 0.23 0.22 0.23 0.23 0.24 0.24 0.26 0.26 0.27 0.28 0.29
0.45 0.43 0.41 0.41 0.40 0.38 0.38 0.38 0.38 0.38 0.38 0.37 0.35 0.35 0.36 0.43 0.40 0.39 0.39 0.37 0.38 0.36 0.35 0.37 0.30 0.21 0.16 0.27 0.18 0.20 0.23 0.22 0.24 0.24 0.24 0.27 0.27 0.25 0.23 0.21 0.20 0.19 0.19 0.19 0.22 0.19 0.22 0.19 0.24 0.17 0.19 0.18 0.17 0.15 0.12 0.09 0.10 0.12 0.13 0.13 0.14 0.16 0.16 0.15 0.15 0.19 0.20 0.19 0.16 0.16 0.16 0.16 0.18 0.21 0.22 0.23 0.24 0.23 0.22 0.23 0.24 0.25 0.25 0.26 0.27 0.27 0.28 0.28
0.45 0.44 0.44 0.43 0.42 0.41 0.41 0.41 0.40 0.41 0.41 0.42 0.42 0.42 0.40 0.34 0.35 0.34 0.30 0.28 0.22 0.20 0.15 0.17 0.16 0.10 0.09 0.16 0.22 0.21 0.20 0.22 0.23 0.23 0.22 0.25 0.26 0.26 0.25 0.25 0.22 0.18 0.16 0.16 0.17 0.18 0.20 0.18 0.20 0.16 0.13 0.14 0.14 0.15 0.14 0.13 0.15 0.14 0.14 0.14 0.15 0.14 0.14 0.15 0.18 0.22 0.20 0.16 0.15 0.16 0.15 0.17 0.19 0.21 0.23 0.24 0.24 0.23 0.23 0.25 0.25 0.25 0.26 0.26 0.26 0.26 0.26 0.26
0.44 0.44 0.43 0.44 0.43 0.42 0.42 0.43 0.43 0.44 0.43 0.39 0.37 0.33 0.31 0.17 0.16 0.16 0.26 0.21 0.18 0.17 0.16 0.17 0.21 0.21 0.21 0.20 0.18 0.22 0.25 0.25 0.19 0.22 0.24 0.26 0.25 0.23 0.21 0.21 0.19 0.19 0.16 0.13 0.17 0.19 0.21 0.14 0.12 0.12 0.13 0.15 0.17 0.18 0.18 0.18 0.18 0.17 0.17 0.16 0.15 0.16 0.16 0.18 0.18 0.20 0.22 0.17 0.18 0.18 0.19 0.19 0.20 0.21 0.22 0.24 0.24 0.24 0.24 0.23 0.24 0.24 0.24 0.24 0.25 0.25 0.25 0.26
0.44 0.43 0.43 0.43 0.42 0.41 0.42 0.44 0.45 0.45 0.47 0.40 0.34 0.26 0.20 0.19 0.14 0.11 0.14 0.16 0.21 0.23 0.20 0.23 0.24 0.21 0.18 0.21 0.23 0.23 0.19 0.20 0.22 0.22 0.25 0.30 0.27 0.22 0.19 0.20 0.17 0.14 0.15 0.18 0.16 0.24 0.22 0.15 0.13 0.15 0.18 0.18 0.19 0.20 0.20 0.20 0.20 0.18 0.17 0.16 0.15 0.15 0.13 0.16 0.16 0.20 0.22 0.17 0.17 0.20 0.19 0.19 0.20 0.22 0.23 0.24 0.23 0.22 0.23 0.23 0.23 0.23 0.23 0.24 0.24 0.24 0.25 0.26
0.43 0.43 0.43 0.43 0.43 0.43 0.44 0.45 0.48 0.47 0.48 0.40 0.33 0.27 0.27 0.26 0.30 0.29 0.19 0.11 0.15 0.23 0.27 0.24 0.27 0.22 0.26 0.24 0.25 0.25 0.22 0.17 0.19 0.20 0.25 0.27 0.24 0.19 0.20 0.20 0.18 0.15 0.19 0.19 0.18 0.16 0.14 0.11 0.13 0.18 0.20 0.21 0.21 0.21 0.21 0.18 0.17 0.17 0.15 0.15 0.14 0.13 0.16 0.17 0.18 0.22 0.23 0.20 0.18 0.20 0.18 0.19 0.20 0.22 0.23 0.23 0.23 0.24 0.25 0.24 0.23 0.23 0.23 0.23 0.24 0.24 0.25 0.26
0.43 0.44 0.44 0.44 0.43 0.45 0.47 0.47 0.49 0.50 0.42 0.35 0.33 0.32 0.29 0.39 0.44 0.41 0.28 0.17 0.14 0.25 0.25 0.24 0.21 0.20 0.20 0.24 0.25 0.26 0.18 0.17 0.15 0.19 0.23 0.25 0.19 0.19 0.19 0.16 0.15 0.16 0.16 0.17 0.13 0.13 0.11 0.13 0.18 0.22 0.22 0.19 0.18 0.19 0.19 0.18 0.18 0.16 0.16 0.14 0.12 0.15 0.13 0.11 0.17 0.20 0.22 0.19 0.17 0.18 0.17 0.18 0.21 0.22 0.22 0.24 0.24 0.24 0.25 0.24 0.24 0.24 0.23 0.24 0.24 0.25 0.25 0.26
0.44 0.45 0.45 0.44 0.43 0.46 0.48 0.49 0.51 0.47 0.42 0.39 0.36 0.33 0.41 0.46 0.43 0.40 0.26 0.13 0.11 0.23 0.26 0.26 0.24 0.22 0.20 0.18 0.24 0.22 0.18 0.18 0.19 0.18 0.27 0.21 0.15 0.20 0.16 0.16 0.14 0.15 0.14 0.16 0.15 0.13 0.12 0.16 0.21 0.21 0.21 0.19 0.17 0.18 0.18 0.17 0.14 0.16 0.15 0.14 0.13 0.13 0.15 0.14 0.15 0.18 0.19 0.20 0.20 0.18 0.16 0.16 0.18 0.18 0.20 0.23 0.24 0.23 0.23 0.24 0.24 0.25 0.25 0.26 0.27 0.27 0.27 0.25
0.46 0.46 0.46 0.45 0.43 0.47 0.46 0.49 0.41 0.42 0.50 0.43 0.37 0.45 0.46 0.46 0.45 0.45 0.24 0.17 0.21 0.23 0.32 0.30 0.24 0.25 0.23 0.29 0.27 0.18 0.19 0.19 0.22 0.25 0.24 0.21 0.18 0.16 0.16 0.22 0.17 0.13 0.14 0.19 0.18 0.16 0.16 0.20 0.21 0.18 0.18 0.18 0.18 0.17 0.17 0.16 0.13 0.14 0.16 0.16 0.16 0.17 0.16 0.16 0.17 0.16 0.14 0.13 0.17 0.15 0.11 0.12 0.17 0.18 0.19 0.20 0.21 0.21 0.23 0.23 0.23 0.24 0.25 0.25 0.26 0.27 0.26 0.26
0.48 0.48 0.46 0.45 0.45 0.46 0.46 0.38 0.35 0.44 0.43 0.36 0.37 0.46 0.46 0.43 0.50 0.43 0.28 0.16 0.12 0.18 0.25 0.16 0.26 0.21 0.29 0.21 0.23 0.20 0.21 0.15 0.25 0.23 0.25 0.25 0.27 0.19 0.17 0.14 0.17 0.11 0.16 0.16 0.15 0.15 0.15 0.19 0.19 0.18 0.18 0.18 0.17 0.16 0.17 0.18 0.14 0.13 0.14 0.19 0.18 0.17 0.16 0.16 0.15 0.14 0.10 0.09 0.15 0.19 0.10 0.09 0.17 0.16 0.18 0.19 0.19 0.20 0.22 0.23 0.23 0.24 0.25 0.25 0.25 0.25 0.25 0.26
0.48 0.48 0.47 0.45 0.46 0.47 0.31 0.29 0.41 0.46 0.29 0.34 0.46 0.46 0.44 0.42 0.46 0.45 0.23 0.13 0.11 0.21 0.16 0.23 0.23 0.21 0.24 0.22 0.20 0.21 0.08 0.11 0.22 0.26 0.26 0.27 0.20 0.32 0.15 0.14 0.17 0.20 0.22 0.21 0.14 0.11 0.19 0.18 0.19 0.19 0.17 0.16 0.15 0.14 0.17 0.18 0.15 0.12 0.19 0.19 0.18 0.17 0.15 0.14 0.14 0.13 0.12 0.15 0.16 0.17 0.15 0.11 0.12 0.17 0.19 0.20 0.19 0.20 0.21 0.22 0.23 0.24 0.24 0.24 0.25 0.25 0.26 0.27
0.48 0.48 0.47 0.46 0.47 0.47 0.36 0.40 0.37 0.31 0.30 0.39 0.47 0.42 0.44 0.44 0.41 0.39 0.18 0.09 0.08 0.25 0.15 0.18 0.22 0.27 0.23 0.21 0.23 0.15 0.15 0.21 0.13 0.21 0.24 0.26 0.26 0.22 0.17 0.14 0.14 0.15 0.18 0.16 0.09 0.14 0.18 0.17 0.16 0.15 0.16 0.16 0.15 0.16 0.18 0.19 0.14 0.14 0.18 0.19 0.17 0.16 0.15 0.15 0.14 0.13 0.13 0.13 0.10 0.14 0.17 0.13 0.13 0.17 0.20 0.20 0.18 0.19 0.20 0.21 0.22 0.23 0.24 0.25 0.26 0.26 0.27 0.28
0.48 0.48 0.46 0.46 0.47 0.48 0.47 0.38 0.32 0.28 0.39 0.43 0.43 0.42 0.41 0.41 0.33 0.22 0.13 0.08 0.19 0.16 0.34 0.18 0.34 0.23 0.19 0.21 0.17 0.18 0.17 0.21 0.12 0.18 0.25 0.26 0.27 0.21 0.14 0.18 0.17 0.17 0.19 0.18 0.12 0.14 0.17 0.18 0.18 0.17 0.15 0.13 0.16 0.17 0.18 0.18 0.14 0.17 0.19 0.19 0.18 0.17 0.16 0.15 0.13 0.13 0.13 0.12 0.09 0.12 0.16 0.12 0.13 0.17 0.19 0.21 0.18 0.18 0.20 0.21 0.22 0.24 0.25 0.26 0.26 0.27 0.28 0.29
0.48 0.47 0.46 0.45 0.43 0.40 0.41 0.45 0.31 0.37 0.45 0.42 0.40 0.40 0.41 0.38 0.28 0.14 0.10 0.07 0.19 0.12 0.20 0.21 0.18 0.14 0.17 0.14 0.15 0.16 0.14 0.16 0.19 0.19 0.20 0.18 0.20 0.23 0.21 0.25 0.18 0.14 0.12 0.17 0.16 0.16 0.18 0.23 0.24 0.18 0.16 0.18 0.18 0.19 0.19 0.18 0.18 0.20 0.18 0.16 0.15 0.14 0.15 0.15 0.16 0.14 0.13 0.09 0.10 0.14 0.16 0.14 0.11 0.16 0.18 0.18 0.18 0.20 0.21 0.22 0.23 0.24 0.26 0.27 0.27 0.27 0.28 0.29
0.49 0.47 0.45 0.47 0.35 0.38 0.38 0.32 0.33 0.43 0.41 0.41 0.40 0.35 0.32 0.25 0.16 0.11 0.08 0.11 0.19 0.16 0.18 0.18 0.12 0.18 0.12 0.13 0.11 0.15 0.16 0.16 0.14 0.15 0.12 0.17 0.14 0.16 0.16 0.18 0.17 0.13 0.12 0.11 0.12 0.14 0.16 0.19 0.20 0.22 0.25 0.21 0.21 0.17 0.20 0.21 0.20 0.18 0.15 0.12 0.12 0.11 0.14 0.14 0.13 0.14 0.09 0.08 0.13 0.16 0.16 0.17 0.11 0.15 0.20 0.23 0.24 0.23 0.22 0.21 0.22 0.24 0.25 0.26 0.26 0.27 0.28 0.29
0.48 0.46 0.47 0.44 0.43 0.48 0.29 0.27 0.34 0.42 0.38 0.39 0.36 0.28 0.22 0.12 0.15 0.09 0.08 0.18 0.09 0.11 0.11 0.10 0.14 0.12 0.13 0.17 0.13 0.12 0.10 0.13 0.13 0.12 0.11 0.12 0.11 0.10 0.11 0.09 0.11 0.07 0.06 0.08 0.08 0.12 0.12 0.15 0.20 0.23 0.25 0.18 0.17 0.14 0.15 0.17 0.18 0.15 0.13 0.12 0.09 0.07 0.08 0.06 0.10 0.07 0.08 0.08 0.13 0.17 0.17 0.15 0.15 0.18 0.21 0.23 0.24 0.24 0.24 0.23 0.23 0.24 0.25 0.26 0.26 0.27 0.30 0.31
0.45 0.46 0.49 0.46 0.45 0.38 0.36 0.38 0.40 0.36 0.37 0.38 0.30 0.26 0.15 0.09 0.07 0.10 0.09 0.11 0.08 0.13 0.09 0.15 0.10 0.11 0.14 0.12 0.10 0.11 0.13 0.08 0.12 0.11 0.15 0.15 0.12 0.12 0.15 0.14 0.15 0.11 0.07 0.10 0.09 0.09 0.08 0.16 0.19 0.20 0.18 0.20 0.18 0.11 0.11 0.11 0.15 0.13 0.11 0.11 0.08 0.07 0.07 0.06 0.07 0.09 0.09 0.12 0.16 0.16 0.18 0.14 0.17 0.19 0.22 0.22 0.24 0.25 0.25 0.25 0.25 0.25 0.26 0.27 0.28 0.29 0.31 0.32
0.45 0.52 0.45 0.47 0.43 0.41 0.40 0.39 0.36 0.34 0.31 0.33 0.26 0.17 0.10 0.07 0.06 0.12 0.09 0.09 0.08 0.14 0.12 0.10 0.09 0.13 0.13 0.09 0.10 0.11 0.07 0.10 0.10 0.10 0.14 0.11 0.12 0.10 0.13 0.15 0.16 0.13 0.12 0.11 0.08 0.09 0.06 0.06 0.15 0.15 0.12 0.18 0.16 0.15 0.14 0.13 0.13 0.12 0.15 0.14 0.11 0.10 0.08 0.07 0.08 0.07 0.09 0.10 0.14 0.17 0.14 0.12 0.12 0.16 0.22 0.23 0.24 0.25 0.26 0.27 0.27 0.28 0.29 0.30 0.30 0.30 0.31 0.33
0.49 0.52 0.50 0.47 0.43 0.40 0.37 0.35 0.33 0.33 0.30 0.25 0.15 0.10 0.06 0.06 0.08 0.07 0.07 0.08 0.10 0.10 0.08 0.12 0.10 0.10 0.09 0.10 0.13 0.12 0.11 0.08 0.12 0.11 0.12 0.11 0.10 0.13 0.13 0.13 0.16 0.16 0.14 0.08 0.10 0.09 0.09 0.08 0.12 0.19 0.17 0.17 0.16 0.19 0.18 0.16 0.14 0.17 0.18 0.18 0.13 0.12 0.16 0.11 0.11 0.11 0.11 0.11 0.11 0.13 0.13 0.17 0.16 0.21 0.23 0.25 0.25 0.26 0.27 0.28 0.29 0.29 0.30 0.31 0.30 0.30 0.31 0.33
0.46 0.45 0.48 0.36 0.31 0.31 0.34 0.32 0.32 0.32 0.27 0.17 0.10 0.07 0.05 0.07 0.05 0.09 0.08 0.14 0.12 0.08 0.08 0.09 0.11 0.08 0.08 0.09 0.11 0.10 0.15 0.10 0.11 0.11 0.12 0.13 0.15 0.14 0.17 0.16 0.15 0.17 0.12 0.09 0.10 0.08 0.10 0.08 0.16 0.15 0.17 0.18 0.18 0.19 0.18 0.21 0.11 0.15 0.16 0.13 0.16 0.20 0.17 0.14 0.14 0.14 0.14 0.12 0.10 0.16 0.15 0.18 0.22 0.23 0.24 0.26 0.26 0.26 0.28 0.28 0.29 0.30 0.31 0.31 0.30 0.29 0.30 0.32
0.37 0.42 0.28 0.26 0.24 0.30 0.31 0.32 0.31 0.28 0.22 0.13 0.07 0.04 0.08 0.10 0.11 0.10 0.14 0.10 0.10 0.13 0.10 0.06 0.07 0.08 0.07 0.07 0.08 0.10 0.11 0.12 0.12 0.10 0.09 0.14 0.12 0.18 0.16 0.17 0.21 0.17 0.17 0.14 0.10 0.15 0.10 0.09 0.14 0.15 0.15 0.21 0.22 0.21 0.21 0.23 0.22 0.18 0.13 0.16 0.20 0.21 0.18 0.14 0.09 0.11 0.10 0.09 0.10 0.15 0.14 0.16 0.17 0.16 0.24 0.25 0.25 0.26 0.28 0.28 0.29 0.30 0.31 0.30 0.29 0.27 0.29 0.30
0.33 0.30 0.25 0.21 0.23 0.31 0.31 0.32 0.30 0.24 0.16 0.10 0.06 0.08 0.15 0.09 0.17 0.13 0.16 0.13 0.14 0.13 0.09 0.09 0.08 0.11 0.08 0.08 0.08 0.10 0.11 0.09 0.10 0.11 0.10 0.14 0.11 0.23 0.17 0.16 0.21 0.18 0.18 0.21 0.13 0.14 0.17 0.10 0.13 0.17 0.18 0.20 0.21 0.21 0.18 0.21 0.24 0.17 0.15 0.22 0.14 0.10 0.10 0.14 0.13 0.10 0.11 0.11 0.12 0.15 0.17 0.18 0.19 0.19 0.24 0.24 0.25 0.26 0.27 0.28 0.28 0.28 0.29 0.28 0.27 0.24 0.26 0.27
0.26 0.22 0.16 0.17 0.29 0.31 0.32 0.35 0.23 0.16 0.12 0.06 0.07 0.07 0.11 0.11 0.17 0.13 0.16 0.17 0.17 0.13 0.10 0.11 0.09 0.10 0.11 0.09 0.11 0.12 0.12 0.09 0.12 0.11 0.10 0.12 0.10 0.17 0.15 0.17 0.15 0.19 0.20 0.20 0.16 0.17 0.18 0.11 0.11 0.17 0.17 0.18 0.17 0.17 0.11 0.14 0.18 0.20 0.20 0.17 0.22 0.18 0.16 0.15 0.16 0.16 0.15 0.12 0.13 0.13 0.17 0.16 0.22 0.23 0.25 0.25 0.26 0.26 0.26 0.26 0.26 0.26 0.26 0.25 0.23 0.22 0.24 0.25
0.15 0.15 0.10 0.22 0.30 0.32 0.36 0.26 0.14 0.11 0.07 0.05 0.07 0.08 0.14 0.11 0.15 0.18 0.19 0.18 0.13 0.13 0.11 0.11 0.13 0.10 0.12 0.12 0.13 0.11 0.13 0.12 0.11 0.11 0.12 0.13 0.11 0.20 0.16 0.20 0.16 0.17 0.20 0.22 0.17 0.20 0.14 0.16 0.09 0.12 0.16 0.15 0.11 0.14 0.12 0.13 0.13 0.15 0.17 0.17 0.19 0.20 0.23 0.20 0.20 0.17 0.16 0.14 0.14 0.15 0.14 0.18 0.23 0.27 0.26 0.26 0.26 0.26 0.25 0.24 0.24 0.24 0.24 0.24 0.21 0.22 0.23 0.23
0.20 0.15 0.12 0.24 0.27 0.30 0.33 0.15 0.08 0.07 0.07 0.11 0.13 0.11 0.13 0.11 0.15 0.17 0.20 0.21 0.18 0.22 0.14 0.13 0.13 0.11 0.12 0.12 0.12 0.14 0.12 0.12 0.13 0.12 0.13 0.13 0.14 0.11 0.20 0.18 0.20 0.17 0.21 0.19 0.17 0.17 0.13 0.13 0.09 0.10 0.11 0.11 0.12 0.17 0.18 0.19 0.20 0.19 0.19 0.18 0.19 0.18 0.17 0.15 0.14 0.21 0.20 0.18 0.16 0.16 0.15 0.20 0.24 0.28 0.26 0.25 0.25 0.24 0.23 0.23 0.22 0.23 0.23 0.22 0.20 0.20 0.22 0.21
0.10 0.07 0.10 0.21 0.23 0.26 0.19 0.08 0.09 0.12 0.10 0.09 0.09 0.12 0.11 0.21 0.16 0.16 0.18 0.20 0.20 0.15 0.22 0.17 0.18 0.15 0.15 0.13 0.13 0.13 0.13 0.13 0.14 0.13 0.15 0.12 0.16 0.15 0.17 0.23 0.21 0.22 0.17 0.13 0.14 0.19 0.17 0.15 0.13 0.10 0.12 0.13 0.17 0.21 0.24 0.24 0.23 0.22 0.22 0.20 0.23 0.22 0.22 0.19 0.16 0.18 0.21 0.21 0.22 0.20 0.17 0.17 0.24 0.24 0.24 0.23 0.22 0.22 0.22 0.22 0.21 0.21 0.21 0.20 0.19 0.20 0.20 0.19
0.12 0.11 0.18 0.23 0.22 0.20 0.13 0.09 0.12 0.11 0.11 0.14 0.19 0.18 0.22 0.17 0.16 0.18 0.16 0.18 0.15 0.19 0.17 0.17 0.16 0.14 0.16 0.14 0.14 0.14 0.16 0.14 0.14 0.13 0.14 0.15 0.15 0.18 0.20 0.21 0.22 0.20 0.20 0.17 0.18 0.20 0.20 0.14 0.12 0.13 0.16 0.18 0.21 0.22 0.23 0.24 0.24 0.23 0.25 0.27 0.25 0.23 0.24 0.22 0.21 0.21 0.19 0.19 0.17 0.16 0.14 0.16 0.21 0.22 0.22 0.22 0.22 0.22 0.22 0.21 0.21 0.20 0.20 0.19 0.17 0.18 0.17 0.15
0.17 0.15 0.15 0.21 0.22 0.20 0.11 0.08 0.08 0.11 0.13 0.16 0.16 0.16 0.21 0.17 0.16 0.15 0.15 0.17 0.16 0.15 0.15 0.15 0.17 0.18 0.14 0.18 0.17 0.14 0.18 0.11 0.14 0.14 0.13 0.15 0.15 0.23 0.21 0.22 0.24 0.18 0.18 0.17 0.15 0.22 0.15 0.15 0.15 0.12 0.12 0.13 0.16 0.20 0.22 0.25 0.26 0.25 0.24 0.25 0.26 0.25 0.25 0.24 0.23 0.22 0.16 0.16 0.16 0.14 0.10 0.12 0.19 0.21 0.22 0.22 0.21 0.20 0.20 0.21 0.20 0.19 0.18 0.16 0.14 0.14 0.13 0.12
0.17 0.22 0.18 0.17 0.20 0.17 0.11 0.14 0.11 0.11 0.12 0.11 0.12 0.13 0.14 0.17 0.19 0.19 0.18 0.16 0.20 0.18 0.16 0.15 0.17 0.18 0.17 0.19 0.16 0.18 0.19 0.15 0.12 0.16 0.16 0.16 0.16 0.23 0.22 0.22 0.24 0.21 0.24 0.25 0.24 0.26 0.17 0.16 0.15 0.12 0.11 0.11 0.12 0.14 0.16 0.19 0.22 0.24 0.24 0.24 0.24 0.23 0.21 0.18 0.15 0.16 0.13 0.15 0.15 0.12 0.11 0.15 0.18 0.20 0.20 0.20 0.20 0.19 0.20 0.19 0.18 0.17 0.15 0.13 0.12 0.12 0.11 0.10
0.14 0.10 0.14 0.15 0.17 0.17 0.18 0.21 0.16 0.13 0.12 0.12 0.11 0.13 0.15 0.14 0.19 0.22 0.22 0.19 0.20 0.19 0.19 0.18 0.19 0.20 0.17 0.17 0.14 0.14 0.15 0.18 0.15 0.14 0.15 0.15 0.16 0.19 0.22 0.24 0.24 0.23 0.24 0.26 0.25 0.24 0.19 0.21 0.21 0.20 0.18 0.17 0.19 0.21 0.24 0.26 0.23 0.20 0.21 0.21 0.19 0.19 0.18 0.17 0.17 0.14 0.12 0.14 0.12 0.13 0.14 0.14 0.16 0.17 0.18 0.18 0.18 0.17 0.16 0.16 0.14 0.13 0.12 0.11 0.11 0.11 0.10 0.10
0.18 0.13 0.14 0.12 0.16 0.15 0.15 0.18 0.16 0.15 0.13 0.16 0.11 0.14 0.13 0.15 0.16 0.18 0.24 0.15 0.20 0.18 0.18 0.19 0.18 0.15 0.16 0.16 0.15 0.14 0.16 0.15 0.17 0.16 0.15 0.15 0.17 0.19 0.22 0.23 0.24 0.25 0.27 0.26 0.28 0.26 0.23 0.21 0.23 0.23 0.23 0.23 0.23 0.23 0.24 0.24 0.21 0.20 0.18 0.16 0.16 0.15 0.16 0.15 0.14 0.12 0.15 0.13 0.10 0.14 0.16 0.13 0.14 0.16 0.16 0.16 0.16 0.14 0.14 0.14 0.13 0.12 0.11 0.11 0.10 0.10 0.10 0.09
0.13 0.16 0.18 0.18 0.13 0.11 0.12 0.14 0.18 0.16 0.17 0.16 0.14 0.17 0.14 0.14 0.14 0.13 0.17 0.19 0.20 0.21 0.15 0.18 0.19 0.18 0.18 0.16 0.16 0.13 0.14 0.14 0.15 0.14 0.16 0.17 0.17 0.19 0.19 0.24 0.24 0.28 0.29 0.28 0.30 0.26 0.23 0.20 0.23 0.23 0.22 0.23 0.24 0.23 0.23 0.20 0.18 0.17 0.15 0.14 0.14 0.15 0.15 0.14 0.14 0.15 0.15 0.12 0.11 0.14 0.15 0.13 0.14 0.15 0.15 0.14 0.14 0.14 0.14 0.13 0.13 0.11 0.10 0.10 0.09 0.09 0.09 0.09
0.19 0.19 0.18 0.23 0.14 0.16 0.16 0.17 0.20 0.17 0.16 0.17 0.15 0.16 0.14 0.14 0.13 0.15 0.15 0.15 0.18 0.17 0.18 0.13 0.14 0.17 0.18 0.19 0.17 0.14 0.15 0.12 0.12 0.16 0.16 0.17 0.18 0.19 0.20 0.23 0.28 0.30 0.29 0.28 0.28 0.28 0.24 0.21 0.24 0.23 0.21 0.21 0.21 0.20 0.19 0.17 0.16 0.15 0.14 0.14 0.15 0.15 0.15 0.15 0.15 0.16 0.16 0.14 0.15 0.14 0.13 0.13 0.13 0.13 0.14 0.14 0.15 0.14 0.14 0.13 0.11 0.09 0.09 0.09 0.09 0.09 0.09 0.08
0.16 0.17 0.15 0.22 0.18 0.17 0.18 0.18 0.18 0.17 0.14 0.16 0.12 0.15 0.15 0.14 0.13 0.15 0.18 0.17 0.13 0.15 0.20 0.15 0.16 0.18 0.19 0.20 0.19 0.15 0.17 0.18 0.18 0.16 0.19 0.20 0.21 0.24 0.23 0.25 0.25 0.28 0.29 0.26 0.26 0.28 0.23 0.20 0.23 0.22 0.19 0.17 0.17 0.17 0.16 0.15 0.14 0.13 0.14 0.15 0.16 0.15 0.15 0.16 0.16 0.16 0.16 0.14 0.14 0.13 0.11 0.10 0.13 0.14 0.14 0.15 0.15 0.15 0.13 0.11 0.09 0.09 0.09 0.09 0.08 0.08 0.08 0.08
0.22 0.22 0.21 0.17 0.14 0.15 0.17 0.16 0.15 0.15 0.13 0.14 0.13 0.14 0.16 0.15 0.15 0.18 0.17 0.21 0.17 0.16 0.18 0.16 0.18 0.18 0.20 0.20 0.20 0.19 0.23 0.22 0.22 0.22 0.25 0.26 0.22 0.28 0.25 0.25 0.28 0.24 0.25 0.25 0.25 0.25 0.24 0.19 0.21 0.18 0.13 0.12 0.15 0.15 0.14 0.14 0.14 0.13 0.13 0.15 0.15 0.14 0.14 0.15 0.14 0.15 0.13 0.11 0.11 0.11 0.09 0.09 0.13 0.15 0.15 0.14 0.14 0.13 0.11 0.09 0.08 0.08 0.08 0.08 0.08 0.08 0.08 0.08
0.23 0.26 0.25 0.19 0.12 0.16 0.13 0.15 0.14 0.14 0.11 0.15 0.16 0.16 0.15 0.15 0.18 0.19 0.15 0.21 0.22 0.22 0.22 0.21 0.20 0.20 0.19 0.20 0.19 0.22 0.25 0.26 0.27 0.30 0.31 0.32 0.33 0.31 0.31 0.29 0.28 0.25 0.24 0.24 0.26 0.22 0.21 0.17 0.15 0.14 0.10 0.11 0.14 0.15 0.13 0.12 0.12 0.11 0.12 0.13 0.14 0.15 0.15 0.15 0.15 0.15 0.14 0.13 0.10 0.08 0.08 0.12 0.13 0.14 0.13 0.13 0.12 0.11 0.09 0.09 0.08 0.08 0.09 0.09 0.08 0.08 0.08 0.07
Wind_Speed
6 6 6 6 6 6 7 7 7 8 8 8 9 9 9 9 10 10 10 9 9 9 9 9 10 10 11 11 11 10 10 10 10 9 10 11 11 12 12 13 14 14 13 13 13 13 13 13 13 13 13 13 14 14 14 14 14 15 14 15 17 16 17 16 16 17 15 16 16 16 16 15 16 17 17 17 17 19 19 20 20 20 20 20 21 20 19 18
6 6 7 7 7 7 7 8 8 8 8 8 8 8 8 9 9 9 9 9 9 9 9 9 10 10 11 11 10 10 9 9 10 10 11 11 12 13 13 14 14 14 13 13 13 13 13 13 14 13 13 14 14 15 15 15 15 15 15 16 17 17 17 17 17 17 16 17 17 17 16 16 17 17 17 18 18 19 20 20 20 21 21 20 20 20 19 18
7 7 7 7 7 7 7 7 7 8 8 8 8 8 8 9 9 9 9 9 9 9 9 9 10 10 11 11 10 10 10 10 10 11 11 12 12 13 13 14 14 13 13 13 14 14 14 14 14 14 14 15 15 15 16 16 16 17 16 17 18 18 18 18 17 18 18 18 17 17 17 17 19 17 17 18 19 19 20 21 19 21 23 21 20 20 19 18
6 6 6 6 6 6 6 6 6 7 7 7 8 8 8 9 9 9 8 8 8 8 9 9 10 10 10 10 10 10 10 10 11 11 11 12 13 14 14 14 14 13 13 14 14 14 14 14 14 14 14 16 16 16 17 17 17 17 17 18 18 17 17 19 19 19 19 18 17 17 17 18 20 19 18 18 19 19 20 22 21 22 23 21 21 20 19 18
6 6 6 6 6 6 6 6 6 6 7 7 8 8 8 8 8 8 8 8 8 9 9 9 10 10 10 11 10 10 10 10 11 11 11 13 13 14 14 15 14 14 14 14 15 15 15 15 15 15 15 16 16 16 17 18 17 17 18 19 18 16 17 19 19 19 19 18 18 17 18 19 19 19 20 18 18 20 20 21 21 22 23 21 20 20 19 19
6 6 6 6 5 5 5 6 6 6 7 7 8 8 8 8 8 8 8 8 9 9 10 10 10 11 11 11 11 10 10 10 11 12 13 13 14 15 15 15 15 14 14 14 15 15 15 15 15 16 15 16 17 17 18 18 17 18 18 19 19 18 18 18 18 19 18 18 18 18 19 19 18 20 21 20 21 22 20 20 20 21 21 19 19 19 19 19
6 5 5 5 5 5 5 5 6 6 7 7 8 8 8 8 9 9 9 9 9 10 10 11 11 11 12 12 11 10 10 12 12 12 13 14 14 14 14 15 15 14 14 15 15 15 16 16 16 16 16 17 18 18 19 18 18 18 19 18 19 19 19 19 18 19 19 19 20 19 19 18 19 20 19 20 23 23 22 21 21 21 19 17 18 19 20 20
5 4 4 4 4 4 5 5 6 7 7 8 8 8 8 9 9 9 9 10 10 11 11 11 11 12 12 11 11 11 12 12 12 12 14 14 14 14 14 15 15 15 15 15 15 16 16 16 17 17 16 18 18 18 18 18 18 18 19 19 18 18 20 20 19 19 19 20 20 19 19 20 20 19 19 21 24 23 23 22 20 20 19 19 19 20 21 21
5 4 4 4 4 4 5 6 6 7 7 8 8 8 9 9 9 9 10 10 11 11 12 12 12 12 12 11 10 11 12 12 12 13 14 14 15 14 14 15 15 15 15 15 15 15 16 16 16 17 17 18 18 18 18 18 19 18 19 19 18 19 19 19 19 19 20 20 19 18 20 21 20 19 20 21 22 21 20 19 19 18 19 20 21 21 21 21
5 4 4 4 4 5 5 6 6 7 8 8 9 9 9 10 10 10 11 11 11 12 12 12 12 12 11 11 10 11 12 12 13 14 14 14 15 14 15 15 15 15 15 16 15 15 16 16 17 16 17 18 18 18 18 17 18 18 18 19 19 20 20 19 19 19 19 19 19 18 20 20 19 19 18 18 19 18 18 18 19 19 19 21 21 22 22 22
5 4 5 5 5 5 5 6 7 8 8 9 9 10 10 11 11 12 12 12 12 12 12 11 12 11 11 11 10 11 13 13 13 14 14 15 15 15 15 15 15 15 15 15 16 16 16 17 17 17 17 17 17 17 18 18 18 18 18 19 20 20 20 19 19 19 18 18 18 18 19 19 18 18 17 18 19 19 19 19 19 19 20 21 21 22 22 23
5 5 5 5 5 6 6 7 8 9 9 10 10 10 11 11 12 12 12 12 12 12 12 12 12 11 11 12 12 13 13 13 14 15 15 15 15 16 16 15 15 15 16 15 16 16 16 17 17 17 18 17 16 17 17 17 17 18 17 18 20 18 19 19 18 19 17 18 18 17 18 19 17 17 17 19 20 20 19 19 20 20 20 20 21 22 22 23
5 5 5 6 6 7 7 8 9 10 10 10 11 11 11 12 12 13 13 13 13 13 13 12 12 12 12 13 13 13 14 14 15 15 15 16 16 16 16 16 16 16 16 16 16 16 16 16 16 17 18 16 16 16 16 16 16 17 16 17 18 17 18 18 16 16 16 16 16 16 18 18 17 16 17 19 19 20 20 20 21 21 21 20 21 21 22 22
6 6 6 7 7 8 9 9 10 10 11 11 11 12 12 12 13 13 13 13 13 13 13 12 13 12 12 13 14 14 14 14 15 15 16 16 16 16 16 16 16 16 16 16 16 15 15 15 15 16 16 16 16 16 16 17 16 17 17 16 17 17 17 17 15 14 14 15 15 15 17 18 17 16 18 20 21 20 20 21 22 21 21 20 20 20 20 20
6 6 7 7 8 9 10 10 11 11 12 12 12 12 13 13 13 13 13 12 12 12 12 12 13 13 13 14 14 14 14 14 15 16 16 16 15 15 16 16 16 16 16 16 15 15 14 14 14 15 15 15 15 16 17 17 17 16 17 17 17 16 18 18 15 14 14 15 15 14 17 18 16 17 20 22 22 21 20 20 20 19 19 19 19 18 18 18
6 7 8 8 9 10 11 11 12 12 12 13 13 13 13 13 13 13 13 12 12 11 12 12 13 12 13 14 14 14 14 15 16 17 17 16 15 15 16 16 15 15 15 15 14 14 14 14 14 14 15 15 15 15 16 17 17 17 16 18 17 16 17 17 15 15 15 15 16 16 18 19 18 19 22 22 22 20 18 19 18 18 18 18 17 17 16 17
7 8 8 9 10 11 12 12 13 13 13 13 14 14 14 13 13 13 12 12 11 12 13 12 12 12 13 13 13 14 15 16 17 17 16 16 15 15 15 15 14 15 14 14 14 14 14 14 14 15 14 15 15 14 15 17 17 17 16 17 17 17 17 17 17 16 16 16 18 18 19 20 20 21 22 21 20 17 17 18 18 18 18 17 16 15 16 16
8 9 9 10 11 12 13 13 14 14 14 14 14 14 14 13 13 12 12 12 13 13 13 12 12 12 13 13 14 15 16 17 17 16 15 15 14 15 15 14 14 14 14 14 14 14 15 15 14 15 15 16 15 14 16 18 17 17 18 18 18 18 18 18 18 18 17 18 19 20 20 20 21 21 21 20 18 16 17 18 18 17 16 16 15 14 15 15
9 10 10 11 12 13 14 14 15 14 15 15 14 14 13 13 13 12 11 13 13 13 12 13 13 12 14 15 15 17 17 17 16 15 14 14 15 14 14 13 14 14 13 14 14 14 14 14 14 15 16 17 16 16 17 18 18 18 18 18 19 20 19 19 19 20 19 18 19 19 19 19 20 20 21 21 18 17 18 17 16 16 15 15 14 14 14 14
10 11 11 12 13 14 15 15 15 15 15 14 14 14 13 13 13 12 13 13 12 12 13 14 13 14 15 15 16 16 16 15 14 13 13 14 14 13 13 13 13 13 13 13 14 14 13 14 15 16 17 17 18 18 17 17 17 17 18 18 20 20 20 20 20 21 19 18 18 17 17 18 20 20 21 21 18 17 17 15 15 15 14 14 14 14 14 15
11 12 12 13 14 15 15 16 15 15 15 14 14 14 13 12 12 13 14 14 13 13 13 14 13 14 14 14 15 14 14 13 13 12 13 13 13 13 13 12 12 13 14 14 14 14 13 14 16 17 17 17 17 17 16 16 16 17 18 19 20 20 21 20 19 21 19 17 18 17 16 18 20 20 21 19 17 18 17 15 15 14 14 14 14 14 15 16
12 13 13 14 15 16 16 16 15 15 14 14 14 13 12 12 12 13 13 13 14 13 13 13 13 14 14 13 13 13 12 12 12 12 13 13 13 12 13 12 11 13 14 13 14 14 14 15 17 17 16 15 14 15 15 15 16 16 17 18 20 20 20 20 19 20 19 17 18 17 16 18 20 19 19 18 17 17 16 15 14 14 14 14 14 15 15 16
13 14 14 15 15 16 16 16 15 14 14 14 14 12 12 13 12 13 12 13 14 13 12 12 12 13 13 12 12 12 12 12 12 13 13 13 13 12 12 12 12 13 13 13 13 14 14 15 16 16 14 13 14 15 14 16 17 17 17 18 20 20 19 19 19 19 19 17 17 16 16 18 19 18 18 18 17 15 14 14 14 14 14 15 15 15 15 16
14 15 15 15 16 16 17 15 14 14 15 14 13 13 13 13 12 12 12 13 13 13 12 12 12 12 12 12 12 12 12 12 13 13 13 13 13 13 12 12 12 12 13 13 12 13 15 15 15 14 14 14 15 15 15 16 17 18 18 18 19 19 18 19 19 19 19 18 18 16 16 17 18 18 18 18 17 15 15 14 14 15 15 15 16 15 16 16
15 15 16 16 17 17 17 15 14 14 15 14 14 14 13 13 13 12 13 13 12 13 12 11 11 11 11 12 13 13 13 13 13 13 13 13 13 13 13 12 12 13 14 13 12 14 16 16 15 14 14 13 14 16 16 16 17 18 18 18 18 17 17 18 19 18 18 19 19 17 17 18 18 18 18 19 18 17 17 17 16 16 16 16 16 16 17 17
16 16 16 17 17 17 16 14 14 15 14 14 14 14 13 13 12 12 12 12 11 12 12 11 11 11 12 13 14 14 13 12 13 13 13 13 13 13 13 13 13 13 14 13 14 14 15 14 14 13 13 13 14 17 17 15 16 18 18 17 16 15 16 17 18 18 18 19 19 18 18 18 18 18 18 19 18 18 18 18 17 17 17 17 17 17 18 19
16 16 17 17 17 17 15 14 15 15 14 15 15 14 13 13 12 12 12 12 11 11 11 11 11 11 12 14 14 13 12 13 13 13 13 13 14 13 13 14 13 13 13 13 14 14 14 14 14 14 13 14 15 16 16 14 14 17 17 15 15 16 18 18 18 19 20 20 20 20 19 18 18 18 19 19 18 17 18 18 19 18 17 17 18 18 19 20
16 17 17 17 17 16 15 14 15 14 15 15 15 14 13 12 13 12 11 10 10 10 10 11 11 11 13 14 13 12 13 14 12 12 14 13 13 13 13 13 13 14 14 13 15 15 14 15 15 14 14 15 16 16 15 14 15 17 16 16 17 17 18 18 18 20 21 20 21 22 19 18 18 18 19 19 18 18 18 19 19 19 18 18 19 20 20 21
17 17 17 17 17 15 15 14 14 15 15 15 14 13 12 12 12 11 10 9 10 10 10 11 11 12 15 14 13 13 13 12 11 13 14 12 13 13 13 13 12 13 14 13 14 15 14 15 15 14 15 16 16 16 14 14 16 16 15 16 17 18 19 19 19 19 19 19 20 20 18 16 17 18 18 18 19 19 19 20 20 20 19 20 20 21 21 21
17 16 17 17 16 15 15 14 15 15 14 14 13 13 12 12 11 10 9 9 10 10 10 11 11 13 15 13 13 14 12 12 13 14 13 12 13 13 12 13 12 12 14 14 13 15 15 15 15 14 14 15 15 15 14 15 17 16 16 17 18 19 20 20 19 18 18 19 20 19 17 16 17 19 19 20 20 21 20 21 21 21 20 20 21 22 22 22
16 16 16 16 15 14 14 15 15 15 14 13 13 12 12 12 11 8 9 10 11 11 11 11 12 13 13 12 13 13 12 13 14 13 13 13 14 14 13 13 13 13 14 14 14 15 15 15 14 14 14 14 14 15 15 16 17 16 17 19 19 20 19 19 19 17 17 19 19 18 17 16 17 19 20 21 21 20 20 21 21 21 21 21 22 23 23 23
16 16 16 15 14 14 14 15 15 14 13 13 12 12 11 11 11 9 10 11 11 11 11 12 13 13 13 12 12 13 13 13 14 12 13 13 14 14 14 13 14 14 14 14 15 16 15 15 15 15 15 14 15 16 17 18 17 17 18 18 18 19 19 19 19 18 18 19 17 17 17 16 17 18 19 19 19 19 19 20 20 20 20 21 22 24 24 24
16 15 15 14 13 14 14 14 14 13 13 13 12 12 10 9 9 9 11 11 10 11 11 12 13 12 12 12 12 13 13 13 14 13 13 13 13 14 14 14 14 14 15 15 16 16 16 16 16 15 16 16 16 17 18 18 19 20 19 17 17 17 17 19 19 18 19 18 17 18 18 17 17 18 19 18 18 18 18 18 19 20 20 21 23 24 25 25
16 15 14 13 13 14 14 14 13 13 13 12 11 11 10 9 9 9 10 11 11 12 11 11 13 13 12 12 13 13 13 13 14 15 15 14 14 15 15 16 15 14 15 16 15 15 16 16 16 16 17 18 18 18 17 18 20 20 18 17 18 17 17 19 19 19 19 19 19 20 19 18 18 18 18 18 18 18 18 19 19 20 21 22 23 25 25 25
16 14 13 13 13 14 13 13 13 12 12 11 10 9 8 9 10 9 10 11 11 12 12 12 12 12 12 13 13 13 13 14 15 15 15 15 15 15 15 16 17 15 15 16 17 16 16 17 18 18 19 19 18 18 18 19 19 19 18 17 18 18 17 19 19 18 19 19 20 18 17 18 17 17 18 18 17 18 19 20 20 21 22 23 25 26 27 27
14 13 12 12 13 14 13 12 12 12 11 10 9 9 8 9 9 9 10 11 11 12 13 13 12 12 13 14 14 15 14 15 16 16 16 16 15 16 16 17 17 16 16 17 18 17 17 19 19 19 20 18 18 19 19 19 18 18 18 18 19 18 17 17 19 18 17 17 18 16 15 16 17 18 19 19 19 19 20 21 22 23 23 24 26 29 30 30
13 12 12 13 14 13 13 12 12 11 10 9 8 9 9 9 9 9 10 11 11 11 12 12 12 12 13 14 15 16 16 16 17 17 17 17 16 17 18 18 17 17 18 18 18 18 18 20 20 18 18 18 18 19 19 18 17 17 18 18 18 17 16 15 17 17 16 17 18 17 16 16 17 18 19 19 20 21 21 22 23 24 25 26 28 31 32 31
12 11 11 12 13 13 12 12 11 10 9 9 8 9 9 9 10 10 11 11 11 11 11 12 13 13 13 15 16 17 17 17 18 18 17 17 17 17 17 18 17 17 18 18 18 18 18 19 20 17 16 18 18 18 18 18 16 16 16 17 16 16 16 16 16 16 17 18 19 19 18 18 19 19 19 19 20 21 22 23 24 26 27 27 31 33 33 32
12 11 11 12 13 13 12 11 11 10 9 9 9 9 9 10 10 11 11 11 11 11 12 12 14 14 14 15 16 18 18 18 18 18 16 16 16 16 15 16 16 17 17 17 16 17 16 16 17 16 15 17 17 16 16 17 17 16 15 16 15 15 15 16 16 16 17 18 19 19 19 19 20 20 19 19 20 22 23 25 26 28 28 29 33 35 34 34
11 10 11 12 13 13 12 11 10 9 9 9 9 9 10 10 11 11 11 12 12 12 13 13 14 15 16 16 17 17 18 17 17 16 15 15 15 14 14 14 15 17 17 16 14 15 15 14 15 17 16 17 17 16 16 16 16 16 15 16 16 16 17 18 18 18 18 18 18 18 20 19 19 19 19 19 20 22 24 26 28 29 29 31 35 35 35 36
10 10 11 13 14 13 11 10 10 9 9 9 9 10 11 11 11 12 12 12 12 13 14 14 14 15 16 17 17 17 17 16 15 14 14 14 14 14 14 15 15 16 17 16 15 16 15 14 16 18 17 17 17 17 16 14 14 15 15 16 17 18 18 18 19 19 18 18 17 18 20 20 19 20 19 20 21 22 24 26 29 30 31 33 36 36 36 38
10 10 11 13 14 12 9 9 10 10 9 10 10 10 11 11 11 12 13 13 13 14 15 14 15 15 15 16 16 15 15 14 14 13 14 14 14 15 16 16 16 16 16 16 16 16 15 14 16 17 17 17 18 17 15 14 14 15 16 17 17 18 17 16 18 19 19 19 19 19 20 21 20 20 20 21 22 23 25 28 30 32 33 36 38 37 37 39
9 10 11 13 13 10 8 9 11 11 10 10 10 10 11 11 12 13 13 14 14 15 15 15 15 15 15 15 14 14 14 13 13 14 14 15 15 15 16 17 16 16 16 16 16 15 15 15 16 18 18 17 18 17 15 15 15 16 18 18 18 18 18 17 18 19 20 20 19 18 20 20 20 20 20 22 24 26 28 30 33 34 36 38 39 38 38 40
9 10 11 13 13 10 8 9 10 10 11 11 11 11 12 12 12 13 14 15 15 15 15 15 15 14 14 13 13 13 14 14 14 14 15 15 16 16 16 17 17 16 16 15 15 16 16 16 16 17 18 17 17 17 17 17 17 18 19 20 19 18 18 18 18 18 19 19 17 17 20 20 20 20 22 24 26 28 30 32 34 36 38 39 39 38 39 41
9 10 10 12 13 10 8 9 9 9 10 11 11 12 13 13 13 14 14 15 15 14 14 14 14 13 13 13 13 14 14 14 15 15 15 16 16 16 16 17 17 16 16 16 16 17 17 16 16 16 16 17 17 17 18 19 19 19 19 20 20 18 18 19 18 18 18 18 18 18 20 21 21 22 25 27 29 31 32 34 36 37 38 39 39 39 40 42
10 10 11 12 12 10 9 10 10 9 10 10 11 12 13 13 14 15 14 14 14 14 13 13 13 13 13 14 14 15 15 15 16 16 16 17 17 17 17 17 17 16 17 17 17 16 16 16 16 15 15 16 18 19 20 19 19 19 19 20 20 19 19 17 17 18 18 19 20 20 21 23 24 26 28 29 31 33 34 35 36 37 39 40 39 40 41 43
9 10 10 11 11 11 11 11 11 10 10 11 11 13 14 14 15 15 14 14 14 13 13 12 12 13 13 14 15 15 16 17 16 16 17 17 17 18 18 17 17 18 18 17 17 16 16 17 17 15 16 18 18 19 19 17 17 17 18 19 19 20 19 17 17 18 18 19 21 21 22 25 27 27 29 31 33 33 34 35 37 39 41 40 39 41 43 45
10 9 10 10 10 11 11 12 12 11 12 12 12 13 14 15 15 14 14 14 13 13 13 13 13 13 14 15 15 16 17 18 17 17 17 18 18 19 19 18 17 18 18 17 17 16 15 16 17 16 18 19 18 17 16 15 16 17 17 18 19 19 19 17 18 19 18 19 22 23 25 27 28 28 30 32 33 34 34 36 39 41 41 40 41 43 44 46
10 10 11 11 11 10 11 12 12 12 13 13 13 13 13 13 14 13 13 13 13 13 13 13 15 16 16 16 15 16 18 18 18 18 18 18 19 19 19 18 17 18 18 16 17 16 15 17 18 17 17 18 17 17 16 15 16 17 18 19 19 19 19 19 19 21 21 22 23 24 27 29 28 29 31 32 33 34 36 38 41 42 41 41 42 44 46 47
11 11 11 11 11 12 12 13 13 12 13 13 12 13 12 12 13 13 13 13 13 14 14 14 16 17 17 16 15 17 18 17 18 19 18 18 19 18 17 17 16 18 18 17 17 18 17 18 18 16 16 17 17 17 18 16 16 17 18 19 20 20 20 20 21 22 23 24 25 26 29 29 28 29 32 33 35 36 38 40 42 42 41 42 44 45 47 48
12 12 11 11 12 13 13 13 12 11 12 13 12 13 13 12 13 13 13 13 13 14 14 15 17 18 17 16 16 18 18 17 18 18 17 17 18 17 16 16 16 17 18 17 18 18 18 18 17 16 16 17 17 17 18 18 17 18 19 20 21 21 21 21 22 23 24 25 27 28 29 30 30 31 33 34 36 38 40 42 43 42 42 43 45 47 48 50
12 12 12 11 11 13 12 12 12 11 11 12 12 13 13 13 13 13 13 13 14 14 15 16 16 17 17 17 17 18 19 18 18 18 17 17 17 16 16 15 15 17 18 17 18 18 17 16 17 16 16 17 18 17 18 19 20 20 20 21 22 21 21 23 24 24 25 26 27 29 30 30 31 33 35 36 38 39 41 43 44 43 43 45 46 48 50 51
Wind_Direction
295 288 280 277 278 281 282 284 285 286 288 290 293 296 298 300 302 301 298 295 292 290 287 285 287 290 293 293 291 288 285 279 274 273 269 267 269 274 279 280 280 277 274 271 268 265 267 270 272 276 270 264 265 264 263 262 257 257 259 259 261 261 261 260 258 259 262 267 268 264 257 257 267 268 268 273 271 271 273 273 272 274 272 271 272 273 270 263
296 291 285 282 282 283 284 285 286 287 289 292 294 295 298 302 304 305 301 296 293 291 289 288 288 290 293 294 290 285 283 278 274 272 269 269 273 277 279 280 280 277 273 270 267 266 267 269 272 275 270 266 267 266 264 263 259 258 260 261 262 262 262 261 258 258 262 267 264 262 260 258 265 267 268 271 273 272 273 275 275 273 272 271 271 269 266 263
298 293 289 288 288 288 289 289 289 291 293 295 297 297 301 305 307 308 306 302 297 295 293 291 291 293 295 295 290 285 284 280 275 272 270 273 277 278 279 280 279 276 273 268 265 264 265 267 271 273 272 269 268 266 265 264 262 261 260 263 265 263 266 266 261 259 261 265 263 264 264 262 266 269 269 270 273 274 271 272 273 270 268 268 269 267 265 264
303 298 294 293 293 293 294 296 296 297 298 299 300 302 304 308 310 310 310 307 303 300 298 296 295 296 298 297 293 286 286 284 276 270 272 277 279 280 280 280 278 275 273 269 265 265 266 268 270 272 272 271 271 268 265 264 263 263 260 262 266 265 268 267 262 261 263 265 265 265 267 268 268 269 270 271 274 276 271 269 268 267 268 267 267 267 265 263
308 302 297 297 297 297 300 303 303 302 303 304 305 306 307 310 312 311 311 310 307 305 302 300 299 299 300 299 294 287 289 286 276 272 276 280 282 282 282 281 278 276 275 272 268 267 266 268 271 273 273 271 271 269 265 264 262 264 264 263 265 264 267 268 264 263 264 266 268 267 268 269 270 270 269 267 270 273 272 271 268 268 270 269 267 266 265 264
310 303 299 299 299 300 304 307 308 308 308 309 310 310 310 311 312 311 309 309 309 306 304 302 299 299 299 299 294 289 286 281 277 277 280 282 284 285 283 281 278 277 277 274 271 268 267 270 272 272 273 272 269 266 266 266 263 265 268 268 267 263 265 269 267 264 264 266 267 267 269 270 271 273 270 264 266 270 272 273 272 273 274 270 268 265 264 264
318 312 307 305 303 302 306 308 310 312 313 313 313 311 310 309 310 308 306 307 307 306 304 301 299 299 298 298 294 291 285 280 281 281 283 285 286 286 283 281 279 279 278 276 272 268 267 270 271 269 271 273 268 265 267 269 266 264 268 271 269 266 265 268 269 266 264 265 267 269 271 270 267 271 274 268 267 270 272 274 276 277 274 270 267 265 265 265
333 328 323 318 311 310 311 312 314 315 315 315 313 311 309 308 308 306 304 305 307 307 305 302 300 300 300 297 294 294 289 283 283 286 289 290 288 287 284 282 281 280 278 277 272 266 267 270 269 269 270 270 266 266 268 269 268 264 265 269 270 268 268 270 272 269 266 267 270 271 271 270 267 271 275 272 271 273 273 274 277 276 273 270 268 266 268 268
346 342 339 333 323 320 319 318 318 316 315 314 311 309 307 307 307 306 305 305 307 307 305 304 301 301 301 299 298 297 290 286 288 291 294 293 290 288 285 283 282 279 277 277 273 267 268 269 269 269 269 269 266 267 269 267 267 265 265 269 271 271 273 273 270 268 268 269 269 269 271 272 272 274 276 276 275 276 275 276 276 275 272 271 269 268 270 271
352 350 347 339 332 328 325 322 319 316 314 311 308 306 305 306 305 305 304 305 306 305 306 304 302 303 302 301 301 296 290 290 292 294 296 295 292 289 286 284 282 279 275 275 273 269 269 269 269 271 270 269 266 267 266 263 265 268 269 270 271 272 275 271 268 269 268 269 267 266 270 273 275 275 275 278 278 278 279 279 278 276 274 273 273 272 273 275
354 351 348 342 337 331 325 320 317 315 312 310 308 306 305 304 303 303 302 302 303 303 304 304 302 302 300 299 296 289 290 294 295 297 298 298 295 289 285 282 281 279 276 275 272 270 270 268 269 272 271 269 267 267 266 264 266 270 272 274 274 276 276 270 267 268 267 269 266 263 271 274 274 273 274 278 279 280 281 282 283 282 279 277 276 276 278 279
358 354 350 344 338 331 324 319 317 315 313 312 309 306 305 304 303 303 301 299 299 300 301 301 300 298 299 299 291 287 291 294 295 298 298 298 295 288 284 281 279 278 276 276 274 272 271 270 270 269 269 267 267 269 267 267 269 271 273 274 275 280 279 272 270 268 265 269 267 266 275 277 271 271 279 282 280 281 283 285 288 287 283 279 277 278 279 280
1 357 350 344 338 333 328 323 320 317 315 313 309 307 306 306 306 305 303 300 296 297 297 296 296 297 299 297 292 290 293 294 295 297 298 298 294 288 284 280 278 276 275 275 276 274 272 272 270 268 267 266 268 268 269 272 271 271 274 273 276 281 278 274 275 270 265 269 269 268 273 275 271 274 284 287 285 286 286 287 289 289 286 284 280 278 280 282
359 353 346 341 337 333 330 327 323 320 318 316 312 309 308 307 307 305 305 301 296 296 296 295 295 297 297 294 293 294 294 295 295 296 298 298 296 289 284 282 279 277 276 276 277 276 274 275 273 272 270 268 268 268 273 277 275 273 274 275 276 276 274 276 276 268 266 272 272 269 270 272 273 278 287 290 289 288 288 289 289 288 287 285 283 280 279 282
351 346 343 339 336 333 331 328 324 322 320 319 316 312 310 308 306 305 305 303 300 299 297 297 296 297 298 295 294 296 296 296 295 296 298 298 297 291 286 284 281 278 277 277 277 276 275 275 275 275 272 271 271 270 274 277 276 275 274 276 277 271 273 279 277 269 271 275 275 272 272 273 274 281 291 292 290 288 288 290 289 288 286 285 285 281 279 282
342 340 339 337 335 333 330 328 325 323 321 320 318 315 313 309 305 303 303 303 302 301 301 300 298 298 299 297 296 297 297 296 296 297 297 295 294 290 289 286 281 281 280 277 276 275 276 276 276 275 272 272 273 272 275 277 277 276 272 272 274 272 275 280 278 277 279 277 278 277 273 274 278 286 293 292 289 288 289 291 291 289 288 287 286 283 279 281
337 336 336 335 333 331 329 327 326 323 321 320 317 316 314 310 306 303 302 303 302 302 302 298 298 300 299 298 299 298 297 296 297 297 296 294 292 291 291 288 283 283 281 279 277 275 276 276 274 275 276 275 272 273 276 275 274 275 274 272 272 271 274 277 278 282 285 279 279 281 276 277 283 288 294 294 288 288 290 292 292 291 290 289 288 284 282 282
334 333 333 332 331 330 328 327 325 323 321 320 317 316 314 310 308 305 302 303 302 304 303 299 303 303 299 300 300 298 297 297 297 296 294 293 293 293 290 287 285 284 283 282 279 276 276 278 276 276 279 278 275 273 270 269 269 271 272 272 274 275 272 274 276 279 284 282 281 282 280 281 286 288 293 295 291 292 292 291 292 292 290 289 286 284 281 281
330 331 330 330 330 329 327 325 324 322 320 320 317 316 313 311 311 306 303 305 303 303 302 300 302 299 296 299 300 299 298 297 296 295 293 294 295 294 291 288 287 285 283 282 280 279 278 280 279 276 276 274 271 266 263 265 265 268 269 269 272 275 274 273 275 279 281 282 283 283 280 283 287 288 291 292 293 295 293 292 292 291 289 287 284 281 279 280
327 328 327 327 328 328 326 325 323 321 320 319 317 317 314 312 312 306 305 306 301 300 301 299 298 297 297 300 301 302 302 298 297 296 296 298 297 295 293 291 292 289 286 281 280 282 281 279 276 272 270 269 267 265 266 268 267 270 271 270 272 273 276 277 278 281 280 279 282 281 281 286 287 288 290 291 295 297 294 293 292 288 287 285 283 281 279 279
324 325 325 326 326 327 326 324 323 321 320 318 318 317 311 309 309 305 306 304 299 301 301 298 297 298 299 300 302 305 304 301 299 298 299 301 300 297 293 294 295 290 288 284 282 285 284 278 275 272 270 269 269 269 271 273 272 273 272 273 276 274 276 279 279 282 280 277 279 279 284 288 288 289 292 294 295 293 290 288 286 284 283 283 282 282 279 278
323 323 323 324 325 325 325 323 322 321 320 319 319 316 310 308 306 305 306 303 301 303 302 300 301 301 300 299 300 305 305 302 302 301 302 304 304 299 294 297 294 287 289 288 285 289 285 278 277 276 273 274 277 274 273 276 275 275 276 276 278 277 279 281 281 283 282 278 277 279 284 287 288 290 292 295 291 288 288 285 282 281 281 281 281 281 280 280
321 321 321 322 323 323 323 321 320 321 322 320 318 316 311 308 307 307 309 306 303 303 303 303 303 303 304 302 301 305 305 301 300 300 304 307 304 299 295 296 293 289 291 287 279 283 283 279 280 279 276 276 280 281 277 279 279 276 276 277 278 279 280 280 281 282 284 281 276 277 282 283 287 289 290 293 290 287 287 284 283 283 281 280 279 280 282 285
320 320 320 321 322 322 321 318 317 321 322 320 319 315 311 309 308 308 309 308 305 302 300 301 302 302 303 303 304 306 302 298 297 298 304 307 302 298 295 293 293 291 290 286 277 277 279 279 282 284 283 278 278 282 279 276 281 280 275 275 277 279 277 277 280 282 284 283 277 276 282 283 286 286 286 289 289 287 286 284 284 284 282 281 280 282 285 288
318 319 319 320 321 321 320 317 317 320 319 319 319 314 312 311 308 308 310 309 304 301 301 301 303 302 301 304 307 306 301 298 298 297 303 307 301 298 297 293 294 290 287 287 285 282 283 284 285 285 287 285 279 280 278 274 280 284 278 274 274 276 277 279 283 286 285 282 277 276 281 284 284 285 284 284 284 284 284 284 284 284 286 287 287 288 289 291
316 317 318 319 319 320 319 315 316 317 316 318 316 313 313 311 309 309 312 311 301 299 303 302 302 303 303 307 308 306 303 301 299 299 303 305 301 298 296 294 295 292 286 287 288 286 286 290 290 284 285 288 285 281 279 276 280 284 281 277 276 279 281 282 284 285 283 279 278 277 278 279 281 282 282 281 280 281 281 283 284 286 289 290 291 292 293 293
315 316 317 317 319 321 319 315 315 315 315 315 314 313 312 310 311 309 311 314 304 300 303 302 303 305 306 309 310 308 303 302 302 301 304 305 302 300 297 295 295 293 291 292 292 289 287 292 295 291 290 289 286 284 280 278 281 281 280 280 281 284 284 281 281 282 281 282 283 282 277 277 278 276 277 278 278 279 280 283 286 288 290 291 293 294 294 294
314 315 316 317 318 320 318 316 316 315 314 313 313 313 311 310 310 308 311 311 304 303 304 303 303 306 310 313 315 311 303 304 304 301 305 306 303 303 299 294 290 291 295 293 289 289 289 291 291 290 291 289 284 282 279 280 283 280 280 284 286 286 284 282 283 284 285 285 285 282 276 278 279 272 273 278 277 277 279 282 286 288 290 292 294 295 295 294
315 315 316 318 317 318 318 317 317 315 313 314 314 313 312 313 311 311 311 303 302 306 304 306 306 308 315 317 315 315 309 307 306 302 306 307 305 306 300 295 294 293 297 294 286 288 291 290 288 288 288 285 283 283 279 279 285 284 284 287 291 292 289 289 287 286 288 286 282 279 272 277 280 270 271 277 275 274 277 281 285 287 289 292 295 297 295 293
315 315 316 318 317 316 316 316 316 315 314 315 313 312 314 315 314 315 308 299 304 306 303 309 309 309 319 319 312 315 313 308 309 309 310 308 309 311 302 297 300 297 298 299 291 290 294 292 290 290 287 283 284 286 282 282 287 287 289 292 295 295 293 292 290 288 289 286 283 279 273 276 279 272 272 276 275 275 277 281 285 287 290 292 295 296 293 291
315 315 316 318 317 317 316 316 316 315 315 314 313 314 315 313 315 314 304 301 305 307 310 313 311 314 322 318 309 312 314 310 313 316 313 311 312 314 310 303 305 305 302 303 298 296 299 297 292 292 290 288 289 289 288 291 292 290 293 296 294 293 293 292 292 291 287 285 285 282 276 279 281 277 277 279 280 279 279 281 283 286 288 291 294 295 292 291
318 317 317 317 317 318 318 316 315 315 314 314 314 315 314 313 313 306 303 308 308 309 312 311 311 316 318 315 310 311 312 311 315 317 312 311 311 311 310 305 304 307 304 300 300 301 299 294 293 294 292 291 291 292 294 295 296 295 296 296 294 294 295 292 290 288 284 283 285 283 282 284 284 282 281 282 283 281 279 280 282 285 287 290 294 296 293 291
321 320 319 318 317 319 318 316 316 315 314 315 314 315 319 318 308 301 305 310 310 311 313 312 314 316 315 316 315 312 312 312 314 316 309 309 312 309 307 305 305 306 302 300 302 304 301 296 296 296 294 294 294 294 294 293 296 297 293 291 292 293 295 291 288 289 287 285 284 285 287 283 280 282 283 281 280 278 278 280 284 287 288 290 294 296 293 292
320 320 319 317 318 318 318 318 316 315 315 316 315 316 319 312 302 307 310 307 309 314 316 315 316 317 318 317 314 314 316 313 314 317 313 312 313 309 307 308 310 307 303 303 302 301 299 295 295 295 293 296 296 293 291 291 295 294 288 289 291 287 287 287 286 286 286 286 286 288 288 280 276 280 279 277 279 280 280 282 286 289 288 290 295 297 296 294
319 319 318 320 321 319 319 319 317 318 317 317 320 322 315 304 303 310 309 307 313 316 315 317 319 321 320 316 314 317 317 313 314 317 316 313 310 307 306 307 307 306 305 304 301 299 296 291 292 294 293 295 295 291 293 296 295 290 288 293 292 286 287 288 286 285 285 289 289 288 288 284 279 280 278 277 280 283 284 285 288 290 290 292 297 299 298 295
319 318 319 322 322 320 320 320 319 320 319 319 326 322 309 305 309 310 309 313 317 316 317 321 323 323 319 315 316 319 318 313 313 315 314 311 306 304 305 303 303 305 305 302 300 299 296 294 296 297 295 294 292 292 296 297 293 292 292 292 289 288 290 290 289 291 291 290 288 285 286 285 281 280 280 280 283 286 287 289 290 292 293 295 299 300 298 297
320 318 319 322 323 322 321 320 321 321 320 324 327 315 306 310 314 311 313 316 315 317 322 321 319 319 317 315 315 316 317 314 313 313 311 309 306 305 306 304 301 303 303 301 299 297 295 296 298 298 294 293 293 296 300 298 294 295 293 290 292 294 294 292 291 296 296 290 287 286 283 279 279 282 283 284 288 289 289 291 292 294 295 297 301 301 299 299
321 318 318 322 324 324 322 321 322 320 323 329 325 314 311 315 315 314 315 317 315 319 323 318 316 318 317 315 313 313 316 315 314 314 311 308 308 307 307 305 302 304 306 304 300 299 298 298 299 298 294 295 300 301 302 300 298 297 292 292 297 295 293 294 293 294 294 291 291 293 288 280 280 286 287 286 288 290 291 292 294 296 298 300 303 302 301 301
322 320 320 322 326 326 323 323 323 322 327 330 320 314 315 315 315 315 316 317 317 319 320 316 316 319 316 314 313 314 316 316 314 315 314 312 312 313 312 309 307 309 312 309 303 302 303 301 300 300 297 300 305 305 303 302 302 302 299 299 299 293 291 293 292 291 292 292 293 295 293 288 286 288 289 287 287 290 292 294 296 299 300 303 304 303 302 302
322 319 318 322 327 326 323 325 327 328 329 323 314 314 317 316 315 316 317 318 318 318 318 315 316 317 316 315 315 315 316 316 315 316 316 316 318 318 318 317 313 314 316 314 310 309 308 303 299 301 305 306 306 305 303 302 302 303 304 304 302 298 297 296 294 293 292 291 292 293 293 292 292 291 290 289 289 291 295 296 298 300 301 304 305 303 302 303
322 321 317 322 326 323 323 329 330 327 324 320 317 317 318 318 317 318 319 318 318 317 316 316 316 316 316 317 316 316 318 319 318 319 318 320 322 320 319 319 315 315 316 316 314 311 308 303 299 302 308 307 303 303 301 299 299 301 304 305 302 299 300 298 296 295 295 293 291 292 292 292 293 292 290 290 290 293 298 299 299 301 302 304 305 303 302 304
326 323 319 325 327 323 326 329 324 323 324 321 320 318 318 320 319 318 319 319 319 318 318 318 317 316 316 316 317 319 321 320 319 320 319 319 320 318 316 317 315 313 315 314 312 310 308 306 303 303 305 303 302 304 301 298 301 303 305 306 304 302 301 297 294 295 298 296 293 293 294 292 293 293 293 293 293 295 300 302 303 303 303 305 305 303 303 304
326 322 321 329 330 326 330 327 322 325 324 318 318 318 318 319 318 318 319 320 319 319 319 319 317 318 319 319 321 323 323 321 319 319 319 318 318 317 315 317 315 313 315 314 312 312 311 309 307 306 306 306 305 306 304 302 305 307 307 308 306 304 301 296 293 295 297 298 297 297 296 294 293 295 297 297 298 299 302 305 306 304 304 305 305 304 304 305
325 323 326 334 334 329 328 324 321 323 320 318 321 322 320 319 319 319 319 319 320 319 320 319 318 321 322 323 324 323 323 324 321 320 321 319 319 318 317 318 317 316 317 315 313 314 312 308 309 310 311 310 309 309 307 305 307 307 307 308 307 306 306 301 299 301 299 298 300 297 295 297 297 298 301 302 303 304 305 306 306 305 305 306 306 305 306 307
327 326 326 335 341 340 330 321 321 321 319 321 324 322 321 320 320 320 319 319 320 319 319 320 320 322 323 325 326 324 324 325 322 322 324 321 319 320 319 320 319 317 316 313 311 313 310 307 309 309 307 306 306 306 304 303 306 307 307 310 309 308 308 303 302 304 300 298 302 297 295 300 300 301 306 306 306 306 305 306 307 306 307 307 306 307 307 308
331 329 327 331 341 347 338 328 328 325 320 323 324 322 322 321 319 321 321 321 322 322 321 321 321 323 327 329 328 325 324 325 323 323 324 321 318 319 320 320 319 317 315 313 313 314 312 311 311 306 300 300 300 301 302 303 306 307 307 310 311 309 309 308 306 304 298 300 304 298 298 302 301 303 307 307 307 307 306 308 309 308 309 308 308 308 309 309
336 333 330 329 332 337 337 335 334 329 323 323 323 321 322 321 321 323 323 322 323 323 323 323 326 327 327 329 328 323 322 324 324 323 323 320 317 317 319 319 318 317 315 314 315 315 316 315 312 309 305 304 303 304 308 310 311 309 309 311 312 311 313 313 308 303 302 304 303 299 302 305 304 305 308 308 308 308 308 310 310 309 309 308 308 309 310 310
338 333 331 330 327 327 330 331 332 332 328 325 322 322 324 326 326 325 323 324 325 326 325 325 328 329 325 324 325 323 322 324 324 322 322 320 319 319 320 318 318 319 319 317 317 317 317 313 310 311 312 312 312 311 315 317 315 313 313 312 313 314 315 314 308 305 306 304 301 303 307 307 306 307 309 309 310 309 310 311 310 310 309 309 310 311 311 311
338 334 331 332 329 324 324 324 325 329 330 327 325 326 328 329 329 325 322 326 327 327 328 325 324 326 324 322 323 322 323 324 323 321 321 321 320 320 321 318 317 320 323 321 318 318 316 313 311 312 315 316 316 316 317 318 315 315 316 313 312 313 314 312 308 308 308 305 304 308 308 306 307 309 310 311 311 310 311 311 310 310 310 310 311 312 312 312
334 330 327 330 330 326 324 323 324 326 328 328 329 328 328 328 328 325 324 327 326 325 328 325 321 323 325 324 324 323 322 322 320 318 319 321 320 320 320 317 315 320 324 322 318 318 319 316 314 315 316 314 315 318 320 318 315 315 316 314 312 312 313 312 310 310 311 308 308 311 309 307 309 312 313 313 312 311 311 311 311 311 311 312 313 313 313 313
332 327 325 328 328 326 326 326 328 330 330 330 330 328 328 328 326 324 324 325 324 323 324 323 321 323 326 327 328 325 322 322 322 319 319 320 320 320 320 318 316 319 322 321 319 321 322 319 318 320 317 311 312 317 317 315 315 314 315 315 314 313 313 312 311 310 310 309 310 312 310 309 312 314 313 312 312 312 312 313 312 312 313 313 314 314 314 314
334 332 331 333 331 331 332 331 334 336 331 329 329 328 328 327 326 327 326 325 325 324 323 324 324 325 327 328 328 325 323 324 323 323 322 322 322 323 322 323 323 322 320 321 322 322 322 322 322 323 319 313 313 315 313 313 314 311 311 313 312 312 315 314 311 310 311 311 311 311 311 313 314 314 313 312 313 314 314 314 313 313 315 315 315 316 316 315